Location: Waco, TX
(31.5480°N, 97.1670°W)
Time: 22:54:40
(UTC-05:00)

ISS - Pass Details

Date: 22 April 2018
Orbit: 403 x 406 km, 51.6° (Epoch: 23 April)

Event Time Altitude Azimuth Distance (km) Brightness Sun altitude
Rises 08:59:24 0° 223° (SW) 2,300 -0.4 25.9°
Reaches altitude 10° 09:01:28 10° 223° (SW) 1,445 -1.3 26.4°
Maximum altitude 09:04:43 88° 133° (SE) 405 -3.3 27.1°
Drops below altitude 10° 09:07:58 10° 45° (NE) 1,455 -0.3 27.8°
Sets 09:10:03 0° 45° (NE) 2,317 0.6 28.2°
